Voltar ao catálogo

STARLINK-33868

AtivoComunicaçõesVLEO
NORAD 63703·PAYLOAD·🇺🇸 United States

Lançado Apr 28, 2025 de Vandenberg Space Force Base

Loading…

Próximas Passagens (próximas 24 horas)

TLE

AtualizadoSource: CelesTrak SupGP

Época: Sep 14, 2026, 20:58 UTC

1 63703C 25087G   26257.87409722  .00049157  00000+0  14525-2 0  2573
2 63703  53.1606  59.8668 0001165  70.1528  86.1665 15.34364103    13

Acompanhe STARLINK-33868 em tempo real com AllMySat

Download on the App Store